Regional Weather Roundup
Issued by NWS Jackson, KY

Home | Current Version | Previous Version | Graphics & Text | Print | Product List | Glossary On
Versions: 1 2 3 4 5 6 7 8 9 10 11 12 13 14 15 16 17 18 19 20 21 22 23 24 25 26 27
000
ASUS43 KJKL 230110
RWRJKL

EAST KENTUCKY HOURLY WEATHER ROUNDUP
NATIONAL WEATHER SERVICE JACKSON KY
900 PM EDT THU JUN 22 2017

NOTE: "FAIR" INDICATES FEW OR NO CLOUDS BELOW 12,000 FEET WITH
NO SIGNIFICANT WEATHER AND/OR OBSTRUCTIONS TO VISIBILITY.

* THESE REPORTS ARE NOT UNDER NWS QUALITY CONTROL AND MAY NOT
  REPORT WEATHER SUCH AS PRECIPITATION AND FOG.

KYZ079-080-083-085-087-088-110-112-115-119-120-230200
...EASTERN KENTUCKY...

CITY           SKY/WX    TMP DP  RH WIND       PRES   REMARKS
JACKSON        CLOUDY    70  67  90 VRB6      29.97F
LONDON         MOCLDY    72  67  84 S6        29.97S
SOMERSET*      CLOUDY    72  72 100 S3        29.97S
MONTICELLO*    CLOUDY    74  71  91 E7        29.96S
WILLIAMSBURG*  MOCLDY    72  72 100 SE7       29.98S
MIDDLESBORO*   DRIZZLE   71  71 100 CALM      30.00F
HARLAN APT*    CLOUDY    70  64  83 CALM      30.02F
PIKE CO APT*   HVY RAIN  69  69 100 SE6       30.01F
BIG SANDY APT* LGT RAIN  71  71 100 SE5       30.00F
MOREHEAD APT*  HVY RAIN  70  68  94 S6        29.98F VSB 1/2
$$

KYZ035-036-041-042-044-050-067-078-099-230200
...CENTRAL KENTUCKY...

CITY           SKY/WX    TMP DP  RH WIND       PRES   REMARKS
MT STERLING*   DRIZZLE   70  68  94 S6        29.97F
FLEMING/MASON* RAIN      70  69  95 S10G21    29.96R
DANVILLE*      CLOUDY    70  70 100 S6        29.94F
LEXINGTON      LGT RAIN  70  67  90 SE7       29.93F
FRANKFORT      LGT RAIN  70  67  90 E7        29.90F FOG
LOUISVILLE     DRIZZLE   73  71  93 SE6       29.87S
LEBANON*       CLOUDY    72  72 100 S8        29.92R
GLASGOW*       CLOUDY    75  75 100 S8        29.89S
BOWLING GREEN  CLOUDY    78  75  90 S13       29.86S
$$

KYZ091>093-OHZ055-061-077-WVZ005-015-034-035-042-230200
...SOUTHERN OHIO/WEST VIRGINIA...

CITY           SKY/WX    TMP DP  RH WIND       PRES   REMARKS
COVINGTON      LGT RAIN  72  70  93 S13       29.89F
COLUMBUS       CLOUDY    78  67  68 SW16G24   29.91S
DAYTON         CLOUDY    74  67  78 SW14      29.90S
WILMINGTON     CLOUDY    72  69  90 S8        29.91F
HUNTINGTON     LGT RAIN  72  69  90 VRB6      29.97F
CHARLESTON     LGT RAIN  73  69  87 S5        30.00F
PINEVILLE*     RAIN      71  69  95 MISG      30.12R
BECKLEY        LGT RAIN  69  67  93 SW6       30.10S
BLUEFIELD      LGT RAIN  67  63  87 SW3       30.13S
LOGAN CO APT*  MOCLDY    70  70 100 CALM      30.04S
$$

VAZ002-007-008-TNZ017-027-036-066-071-230200
...SOUTHWEST VIRGINIA/EAST TENNESSEE...

CITY           SKY/WX    TMP DP  RH WIND       PRES   REMARKS
WISE*          CLOUDY    68  68 100 S7        30.09S
JONESVILLE*      N/A     72  70  94 CALM      30.04F
ABINGDON*      CLOUDY    72  71  98 SE5       30.07F
BRISTOL        CLOUDY    72  71  97 CALM      30.04F
MORRISTOWN*    CLOUDY    73  72  94 E3        29.99F
SEVIERVILLE*   MOCLDY    73  72  94 CALM      29.97F
KNOXVILLE      LGT RAIN  73  71  93 CALM      29.97F
LAFOLLETTE*      N/A     72  72 100 CALM      30.02F FOG
OAK RIDGE      LGT RAIN  74  71  91 CALM      29.99F
CROSSVILLE     CLOUDY    72  69  90 S8        30.01S
NASHVILLE      MOCLDY    77  74  90 S10       29.90R
$$

...KEY TO REMARKS...
VSB - VISIBILITY IN MILES
WCI - WIND CHILL INDEX
HX  - HEAT INDEX

$$




USA.gov is the U.S. government's official web portal to all federal, state and local government web resources and services.